Time,TemperatureF,DewpointF,PressureIn,WindDirection,WindDirectionDegrees,WindSpeedMPH,WindSpeedGustMPH,Humidity,HourlyPrecipIn,Conditions,Clouds,dailyrainin,SoftwareType,DateUTC
2013-07-08 00:03:00,62.8,0.0,29.84,SW,232,3.0,14.0,0,0.00,,,0.00,Weather View 32 v70,2013-07-08 07:03:00,
2013-07-08 00:08:00,62.9,0.0,29.84,South,190,4.0,14.0,0,0.00,,,0.00,Weather View 32 v70,2013-07-08 07:08:00,
2013-07-08 00:13:00,62.7,0.0,29.84,SW,215,6.0,14.0,0,0.00,,,0.00,Weather View 32 v70,2013-07-08 07:13:00,
2013-07-08 00:18:00,62.0,0.0,29.84,SW,236,4.0,14.0,0,0.00,,,0.00,Weather View 32 v70,2013-07-08 07:18:00,
2013-07-08 00:23:00,62.0,0.0,29.84,WSW,239,8.0,14.0,0,0.00,,,0.00,Weather View 32 v70,2013-07-08 07:23:00,
2013-07-08 00:28:00,61.6,0.0,29.84,WSW,239,6.0,14.0,0,0.00,,,0.00,Weather View 32 v70,2013-07-08 07:28:00,
2013-07-08 00:33:00,61.5,0.0,29.83,SW,219,7.0,14.0,0,0.00,,,0.00,Weather View 32 v70,2013-07-08 07:33:00,
2013-07-08 00:38:00,61.5,0.0,29.84,SW,221,6.0,14.0,0,0.00,,,0.00,Weather View 32 v70,2013-07-08 07:38:00,
2013-07-08 00:43:00,61.2,0.0,29.84,WSW,240,7.0,14.0,0,0.00,,,0.00,Weather View 32 v70,2013-07-08 07:43:00,
2013-07-08 00:48:00,61.1,0.0,29.83,SW,235,3.0,14.0,0,0.00,,,0.00,Weather View 32 v70,2013-07-08 07:48:00,
2013-07-08 00:53:00,61.1,0.0,29.83,WSW,255,4.0,14.0,0,0.00,,,0.00,Weather View 32 v70,2013-07-08 07:53:00,
2013-07-08 00:58:00,61.0,0.0,29.83,WSW,243,5.0,12.0,0,0.00,,,0.00,Weather View 32 v70,2013-07-08 07:58:00,
2013-07-08 01:03:00,60.8,0.0,29.83,SW,231,5.0,12.0,0,0.00,,,0.00,Weather View 32 v70,2013-07-08 08:03:00,
2013-07-08 01:08:00,60.7,0.0,29.84,SSW,208,6.0,12.0,0,0.00,,,0.00,Weather View 32 v70,2013-07-08 08:08:00,
2013-07-08 01:13:00,60.5,0.0,29.84,West,273,1.0,12.0,0,0.00,,,0.00,Weather View 32 v70,2013-07-08 08:13:00,
2013-07-08 01:18:00,60.4,0.0,29.84,SW,215,8.0,12.0,0,0.00,,,0.00,Weather View 32 v70,2013-07-08 08:18:00,
2013-07-08 01:23:00,60.3,0.0,29.84,SW,221,7.0,12.0,0,0.00,,,0.00,Weather View 32 v70,2013-07-08 08:23:00,
2013-07-08 01:28:00,60.1,0.0,29.84,SSW,203,6.0,12.0,0,0.00,,,0.00,Weather View 32 v70,2013-07-08 08:28:00,
2013-07-08 01:33:00,60.0,0.0,29.84,WSW,256,5.0,13.0,0,0.00,,,0.00,Weather View 32 v70,2013-07-08 08:33:00,
2013-07-08 01:38:00,59.4,0.0,29.84,WSW,256,2.0,13.0,0,0.00,,,0.00,Weather View 32 v70,2013-07-08 08:38:00,
2013-07-08 01:43:00,59.4,0.0,29.84,SSW,205,3.0,13.0,0,0.00,,,0.00,Weather View 32 v70,2013-07-08 08:43:00,
2013-07-08 01:48:00,59.7,0.0,29.84,West,264,4.0,13.0,0,0.00,,,0.00,Weather View 32 v70,2013-07-08 08:48:00,
2013-07-08 01:53:00,59.9,0.0,29.85,West,269,6.0,13.0,0,0.00,,,0.00,Weather View 32 v70,2013-07-08 08:53:00,
2013-07-08 01:58:00,60.1,0.0,29.85,West,262,6.0,13.0,0,0.00,,,0.00,Weather View 32 v70,2013-07-08 08:58:00,
2013-07-08 02:03:00,59.3,0.0,29.85,SSW,205,4.0,13.0,0,0.00,,,0.00,Weather View 32 v70,2013-07-08 09:03:00,
2013-07-08 02:08:00,59.5,0.0,29.85,SW,215,4.0,13.0,0,0.00,,,0.00,Weather View 32 v70,2013-07-08 09:08:00,
2013-07-08 02:13:00,59.5,0.0,29.85,WSW,255,3.0,13.0,0,0.00,,,0.00,Weather View 32 v70,2013-07-08 09:13:00,
2013-07-08 02:18:00,59.4,0.0,29.85,SW,229,7.0,14.0,0,0.00,,,0.00,Weather View 32 v70,2013-07-08 09:18:00,
2013-07-08 02:23:00,58.9,0.0,29.85,South,180,2.0,14.0,0,0.00,,,0.00,Weather View 32 v70,2013-07-08 09:23:00,
2013-07-08 02:28:00,59.0,0.0,29.84,WSW,248,5.0,14.0,0,0.00,,,0.00,Weather View 32 v70,2013-07-08 09:28:00,
2013-07-08 02:33:00,59.4,0.0,29.84,West,274,3.0,14.0,0,0.00,,,0.00,Weather View 32 v70,2013-07-08 09:33:00,
2013-07-08 02:38:00,59.0,0.0,29.85,WNW,283,3.0,14.0,0,0.00,,,0.00,Weather View 32 v70,2013-07-08 09:38:00,
2013-07-08 02:43:00,59.2,0.0,29.85,SW,214,7.0,14.0,0,0.00,,,0.00,Weather View 32 v70,2013-07-08 09:43:00,
2013-07-08 02:48:00,58.7,0.0,29.85,SW,219,5.0,14.0,0,0.00,,,0.00,Weather View 32 v70,2013-07-08 09:48:00,
2013-07-08 02:53:00,58.3,0.0,29.85,SW,232,8.0,14.0,0,0.00,,,0.00,Weather View 32 v70,2013-07-08 09:53:00,
2013-07-08 02:58:00,58.2,0.0,29.85,SW,229,7.0,14.0,0,0.00,,,0.00,Weather View 32 v70,2013-07-08 09:58:00,
2013-07-08 03:03:00,58.3,0.0,29.85,WNW,295,4.0,14.0,0,0.00,,,0.00,Weather View 32 v70,2013-07-08 10:03:00,
2013-07-08 03:08:00,58.3,0.0,29.85,WSW,255,5.0,14.0,0,0.00,,,0.00,Weather View 32 v70,2013-07-08 10:08:00,
2013-07-08 03:13:00,58.3,0.0,29.85,WSW,240,1.0,14.0,0,0.00,,,0.00,Weather View 32 v70,2013-07-08 10:13:00,
2013-07-08 03:18:00,58.3,0.0,29.85,SSW,204,6.0,14.0,0,0.00,,,0.00,Weather View 32 v70,2013-07-08 10:18:00,
2013-07-08 03:23:00,58.3,0.0,29.85,SW,218,8.0,14.0,0,0.00,,,0.00,Weather View 32 v70,2013-07-08 10:23:00,
2013-07-08 03:28:00,58.4,0.0,29.85,WSW,239,2.0,12.0,0,0.00,,,0.00,Weather View 32 v70,2013-07-08 10:28:00,
2013-07-08 03:33:00,58.3,0.0,29.85,SW,226,4.0,12.0,0,0.00,,,0.00,Weather View 32 v70,2013-07-08 10:33:00,
2013-07-08 03:38:00,58.3,0.0,29.85,West,281,6.0,12.0,0,0.00,,,0.00,Weather View 32 v70,2013-07-08 10:38:00,
2013-07-08 03:43:00,58.1,0.0,29.85,SW,219,4.0,12.0,0,0.00,,,0.00,Weather View 32 v70,2013-07-08 10:43:00,
2013-07-08 03:48:00,57.8,0.0,29.85,SW,231,9.0,12.0,0,0.00,,,0.00,Weather View 32 v70,2013-07-08 10:48:00,
2013-07-08 03:53:00,58.1,0.0,29.85,South,179,6.0,12.0,0,0.00,,,0.00,Weather View 32 v70,2013-07-08 10:53:00,
2013-07-08 03:58:00,58.1,0.0,29.85,West,266,3.0,13.0,0,0.00,,,0.00,Weather View 32 v70,2013-07-08 10:58:00,
2013-07-08 04:03:00,57.8,0.0,29.85,South,186,3.0,13.0,0,0.00,,,0.00,Weather View 32 v70,2013-07-08 11:03:00,
2013-07-08 04:08:00,57.7,0.0,29.85,WSW,239,6.0,13.0,0,0.00,,,0.00,Weather View 32 v70,2013-07-08 11:08:00,
2013-07-08 04:13:00,57.7,0.0,29.86,SSW,211,2.0,14.0,0,0.00,,,0.00,Weather View 32 v70,2013-07-08 11:13:00,
2013-07-08 04:18:00,57.5,0.0,29.86,WSW,248,6.0,14.0,0,0.00,,,0.00,Weather View 32 v70,2013-07-08 11:18:00,
2013-07-08 04:23:00,57.8,0.0,29.86,SW,219,5.0,14.0,0,0.00,,,0.00,Weather View 32 v70,2013-07-08 11:23:00,
2013-07-08 04:28:00,57.7,0.0,29.86,South,169,5.0,14.0,0,0.00,,,0.00,Weather View 32 v70,2013-07-08 11:28:00,
2013-07-08 04:33:00,57.3,0.0,29.86,SW,232,4.0,14.0,0,0.00,,,0.00,Weather View 32 v70,2013-07-08 11:33:00,
2013-07-08 04:38:00,57.2,0.0,29.86,WSW,243,8.0,14.0,0,0.00,,,0.00,Weather View 32 v70,2013-07-08 11:38:00,
2013-07-08 04:43:00,57.4,0.0,29.87,WSW,239,4.0,14.0,0,0.00,,,0.00,Weather View 32 v70,2013-07-08 11:43:00,
2013-07-08 04:48:00,57.5,0.0,29.87,WSW,242,4.0,14.0,0,0.00,,,0.00,Weather View 32 v70,2013-07-08 11:48:00,
2013-07-08 04:53:00,57.3,0.0,29.87,SW,228,4.0,14.0,0,0.00,,,0.00,Weather View 32 v70,2013-07-08 11:53:00,
2013-07-08 04:58:00,57.5,0.0,29.87,SW,217,3.0,14.0,0,0.00,,,0.00,Weather View 32 v70,2013-07-08 11:58:00,
2013-07-08 05:03:00,57.6,0.0,29.87,WSW,238,7.0,14.0,0,0.00,,,0.00,Weather View 32 v70,2013-07-08 12:03:00,
2013-07-08 05:08:00,57.6,0.0,29.87,SSW,201,5.0,14.0,0,0.00,,,0.00,Weather View 32 v70,2013-07-08 12:08:00,
2013-07-08 05:13:00,57.4,0.0,29.87,SW,232,6.0,13.0,0,0.00,,,0.00,Weather View 32 v70,2013-07-08 12:13:00,
2013-07-08 05:18:00,57.4,0.0,29.87,West,277,4.0,13.0,0,0.00,,,0.00,Weather View 32 v70,2013-07-08 12:18:00,
2013-07-08 05:23:00,57.2,0.0,29.87,NW,311,3.0,12.0,0,0.00,,,0.00,Weather View 32 v70,2013-07-08 12:23:00,
2013-07-08 05:28:00,57.2,0.0,29.88,WSW,240,2.0,12.0,0,0.00,,,0.00,Weather View 32 v70,2013-07-08 12:28:00,
2013-07-08 05:33:00,57.2,0.0,29.87,WSW,239,3.0,12.0,0,0.00,,,0.00,Weather View 32 v70,2013-07-08 12:33:00,
2013-07-08 05:38:00,56.9,0.0,29.88,SSW,201,8.0,12.0,0,0.00,,,0.00,Weather View 32 v70,2013-07-08 12:38:00,
2013-07-08 05:43:00,57.3,0.0,29.88,SW,226,7.0,12.0,0,0.00,,,0.00,Weather View 32 v70,2013-07-08 12:43:00,
2013-07-08 05:49:00,57.2,0.0,29.88,West,271,5.0,12.0,0,0.00,,,0.00,Weather View 32 v70,2013-07-08 12:49:00,
2013-07-08 05:54:00,57.2,0.0,29.88,SW,236,6.0,12.0,0,0.00,,,0.00,Weather View 32 v70,2013-07-08 12:54:00,
2013-07-08 05:59:00,57.1,0.0,29.88,SW,236,4.0,12.0,0,0.00,,,0.00,Weather View 32 v70,2013-07-08 12:59:00,
2013-07-08 06:04:00,57.2,0.0,29.88,WSW,250,2.0,12.0,0,0.00,,,0.00,Weather View 32 v70,2013-07-08 13:04:00,
2013-07-08 06:09:00,57.2,0.0,29.89,SW,235,0.0,12.0,0,0.00,,,0.00,Weather View 32 v70,2013-07-08 13:09:00,
2013-07-08 06:14:00,57.4,0.0,29.89,West,271,3.0,12.0,0,0.00,,,0.00,Weather View 32 v70,2013-07-08 13:14:00,
2013-07-08 06:19:00,57.1,0.0,29.89,WNW,285,2.0,11.0,0,0.00,,,0.00,Weather View 32 v70,2013-07-08 13:19:00,
2013-07-08 06:24:00,57.5,0.0,29.89,West,266,7.0,11.0,0,0.00,,,0.00,Weather View 32 v70,2013-07-08 13:24:00,
2013-07-08 06:29:00,57.1,0.0,29.90,WSW,246,4.0,11.0,0,0.00,,,0.00,Weather View 32 v70,2013-07-08 13:29:00,
2013-07-08 06:34:00,57.2,0.0,29.89,WSW,256,2.0,11.0,0,0.00,,,0.00,Weather View 32 v70,2013-07-08 13:34:00,
2013-07-08 06:39:00,57.4,0.0,29.90,West,266,5.0,11.0,0,0.00,,,0.00,Weather View 32 v70,2013-07-08 13:39:00,
2013-07-08 06:44:00,57.7,0.0,29.90,West,271,4.0,11.0,0,0.00,,,0.00,Weather View 32 v70,2013-07-08 13:44:00,
2013-07-08 06:49:00,57.5,0.0,29.90,SSW,197,6.0,11.0,0,0.00,,,0.00,Weather View 32 v70,2013-07-08 13:49:00,
2013-07-08 06:54:00,57.8,0.0,29.90,WSW,253,4.0,11.0,0,0.00,,,0.00,Weather View 32 v70,2013-07-08 13:54:00,
2013-07-08 06:59:00,58.4,0.0,29.90,West,260,7.0,11.0,0,0.00,,,0.00,Weather View 32 v70,2013-07-08 13:59:00,
2013-07-08 07:04:00,58.5,0.0,29.90,West,271,5.0,11.0,0,0.00,,,0.00,Weather View 32 v70,2013-07-08 14:04:00,
2013-07-08 07:09:00,58.9,0.0,29.90,West,260,3.0,11.0,0,0.00,,,0.00,Weather View 32 v70,2013-07-08 14:09:00,
2013-07-08 07:14:00,59.1,0.0,29.91,WSW,246,1.0,11.0,0,0.00,,,0.00,Weather View 32 v70,2013-07-08 14:14:00,
2013-07-08 07:19:00,59.3,0.0,29.91,WNW,283,8.0,11.0,0,0.00,,,0.00,Weather View 32 v70,2013-07-08 14:19:00,
2013-07-08 07:24:00,59.5,0.0,29.91,WSW,240,4.0,11.0,0,0.00,,,0.00,Weather View 32 v70,2013-07-08 14:24:00,
2013-07-08 07:29:00,59.6,0.0,29.91,WSW,252,4.0,11.0,0,0.00,,,0.00,Weather View 32 v70,2013-07-08 14:29:00,
2013-07-08 07:34:00,60.2,0.0,29.91,SW,215,5.0,11.0,0,0.00,,,0.00,Weather View 32 v70,2013-07-08 14:34:00,
2013-07-08 07:39:00,60.7,0.0,29.92,West,278,5.0,11.0,0,0.00,,,0.00,Weather View 32 v70,2013-07-08 14:39:00,
2013-07-08 07:44:00,61.1,0.0,29.92,West,278,6.0,11.0,0,0.00,,,0.00,Weather View 32 v70,2013-07-08 14:44:00,
2013-07-08 07:49:00,61.4,0.0,29.92,SW,221,5.0,11.0,0,0.00,,,0.00,Weather View 32 v70,2013-07-08 14:49:00,
2013-07-08 07:54:00,61.9,0.0,29.92,SW,231,3.0,11.0,0,0.00,,,0.00,Weather View 32 v70,2013-07-08 14:54:00,
2013-07-08 07:59:00,62.2,0.0,29.92,WSW,239,3.0,11.0,0,0.00,,,0.00,Weather View 32 v70,2013-07-08 14:59:00,
2013-07-08 08:04:00,62.0,0.0,29.92,SSE,160,1.0,11.0,0,0.00,,,0.00,Weather View 32 v70,2013-07-08 15:04:00,
2013-07-08 08:09:00,62.5,0.0,29.92,WSW,238,4.0,11.0,0,0.00,,,0.00,Weather View 32 v70,2013-07-08 15:09:00,
2013-07-08 08:14:00,63.3,0.0,29.92,SSW,207,8.0,11.0,0,0.00,,,0.00,Weather View 32 v70,2013-07-08 15:14:00,
2013-07-08 08:20:00,63.8,0.0,29.92,South,188,4.0,11.0,0,0.00,,,0.00,Weather View 32 v70,2013-07-08 15:20:00,
2013-07-08 08:24:00,63.4,0.0,29.92,SW,225,1.0,11.0,0,0.00,,,0.00,Weather View 32 v70,2013-07-08 15:24:00,
2013-07-08 08:30:00,63.7,0.0,29.93,WSW,243,5.0,11.0,0,0.00,,,0.00,Weather View 32 v70,2013-07-08 15:30:00,
2013-07-08 08:35:00,64.3,0.0,29.93,SW,224,5.0,10.0,0,0.00,,,0.00,Weather View 32 v70,2013-07-08 15:35:00,
2013-07-08 08:40:00,63.9,0.0,29.93,SSW,197,9.0,12.0,0,0.00,,,0.00,Weather View 32 v70,2013-07-08 15:40:00,
2013-07-08 08:45:00,64.6,0.0,29.93,SW,235,2.0,12.0,0,0.00,,,0.00,Weather View 32 v70,2013-07-08 15:45:00,
2013-07-08 08:50:00,65.4,0.0,29.93,WSW,256,6.0,12.0,0,0.00,,,0.00,Weather View 32 v70,2013-07-08 15:50:00,
2013-07-08 08:55:00,65.8,0.0,29.93,SSW,210,3.0,12.0,0,0.00,,,0.00,Weather View 32 v70,2013-07-08 15:55:00,
2013-07-08 09:00:00,66.1,0.0,29.93,WSW,242,3.0,12.0,0,0.00,,,0.00,Weather View 32 v70,2013-07-08 16:00:00,
2013-07-08 09:05:00,66.1,0.0,29.93,SSW,195,4.0,12.0,0,0.00,,,0.00,Weather View 32 v70,2013-07-08 16:05:00,
2013-07-08 09:10:00,66.2,0.0,29.93,SSW,201,5.0,12.0,0,0.00,,,0.00,Weather View 32 v70,2013-07-08 16:10:00,
2013-07-08 09:15:00,66.8,0.0,29.93,West,259,7.0,12.0,0,0.00,,,0.00,Weather View 32 v70,2013-07-08 16:15:00,
2013-07-08 09:20:00,67.8,0.0,29.93,SSW,212,4.0,12.0,0,0.00,,,0.00,Weather View 32 v70,2013-07-08 16:20:00,
2013-07-08 09:25:00,67.9,0.0,29.94,SSW,203,4.0,12.0,0,0.00,,,0.00,Weather View 32 v70,2013-07-08 16:25:00,
2013-07-08 09:30:00,67.2,0.0,29.94,SW,222,6.0,12.0,0,0.00,,,0.00,Weather View 32 v70,2013-07-08 16:30:00,
2013-07-08 09:35:00,68.0,0.0,29.94,South,170,4.0,12.0,0,0.00,,,0.00,Weather View 32 v70,2013-07-08 16:35:00,
2013-07-08 09:40:00,69.1,0.0,29.94,South,177,3.0,11.0,0,0.00,,,0.00,Weather View 32 v70,2013-07-08 16:40:00,
2013-07-08 09:45:00,69.1,0.0,29.93,SW,217,3.0,11.0,0,0.00,,,0.00,Weather View 32 v70,2013-07-08 16:45:00,
2013-07-08 09:50:00,69.7,0.0,29.93,SSE,148,1.0,11.0,0,0.00,,,0.00,Weather View 32 v70,2013-07-08 16:50:00,
2013-07-08 09:55:00,70.6,0.0,29.93,South,184,2.0,11.0,0,0.00,,,0.00,Weather View 32 v70,2013-07-08 16:55:00,
2013-07-08 10:01:00,71.6,0.0,29.94,South,184,3.0,11.0,0,0.00,,,0.00,Weather View 32 v70,2013-07-08 17:01:00,
2013-07-08 10:06:00,71.3,0.0,29.94,SSE,156,3.0,10.0,0,0.00,,,0.00,Weather View 32 v70,2013-07-08 17:06:00,
2013-07-08 10:11:00,71.7,0.0,29.94,SSE,165,3.0,10.0,0,0.00,,,0.00,Weather View 32 v70,2013-07-08 17:11:00,
2013-07-08 10:16:00,72.4,0.0,29.94,SE,134,7.0,10.0,0,0.00,,,0.00,Weather View 32 v70,2013-07-08 17:16:00,
2013-07-08 10:22:00,73.1,0.0,29.94,SSW,194,3.0,10.0,0,0.00,,,0.00,Weather View 32 v70,2013-07-08 17:22:00,
2013-07-08 10:27:00,73.9,0.0,29.94,SW,231,5.0,10.0,0,0.00,,,0.00,Weather View 32 v70,2013-07-08 17:27:00,
2013-07-08 10:32:00,74.4,0.0,29.94,SSE,158,1.0,10.0,0,0.00,,,0.00,Weather View 32 v70,2013-07-08 17:32:00,
2013-07-08 10:37:00,74.3,0.0,29.94,SE,136,2.0,10.0,0,0.00,,,0.00,Weather View 32 v70,2013-07-08 17:37:00,
2013-07-08 10:42:00,75.3,0.0,29.94,SSW,207,3.0,10.0,0,0.00,,,0.00,Weather View 32 v70,2013-07-08 17:42:00,
2013-07-08 10:47:00,75.2,0.0,29.94,SSE,152,7.0,10.0,0,0.00,,,0.00,Weather View 32 v70,2013-07-08 17:47:00,
2013-07-08 10:53:00,75.4,0.0,29.94,SW,224,5.0,10.0,0,0.00,,,0.00,Weather View 32 v70,2013-07-08 17:53:00,
2013-07-08 10:58:00,76.0,0.0,29.94,SSW,203,3.0,10.0,0,0.00,,,0.00,Weather View 32 v70,2013-07-08 17:58:00,
2013-07-08 11:03:00,76.1,0.0,29.94,South,177,5.0,10.0,0,0.00,,,0.00,Weather View 32 v70,2013-07-08 18:03:00,
2013-07-08 11:08:00,76.8,0.0,29.94,SW,235,5.0,10.0,0,0.00,,,0.00,Weather View 32 v70,2013-07-08 18:08:00,
2013-07-08 11:13:00,77.1,0.0,29.94,SSW,208,6.0,10.0,0,0.00,,,0.00,Weather View 32 v70,2013-07-08 18:13:00,
2013-07-08 11:18:00,77.2,0.0,29.94,SSW,211,3.0,10.0,0,0.00,,,0.00,Weather View 32 v70,2013-07-08 18:18:00,
2013-07-08 11:24:00,77.5,0.0,29.94,South,191,3.0,10.0,0,0.00,,,0.00,Weather View 32 v70,2013-07-08 18:24:00,
2013-07-08 11:29:00,78.2,0.0,29.94,SSW,198,5.0,11.0,0,0.00,,,0.00,Weather View 32 v70,2013-07-08 18:29:00,
2013-07-08 11:34:00,79.4,0.0,29.94,SSW,194,6.0,11.0,0,0.00,,,0.00,Weather View 32 v70,2013-07-08 18:34:00,
2013-07-08 11:40:00,80.1,0.0,29.94,SSW,211,6.0,11.0,0,0.00,,,0.00,Weather View 32 v70,2013-07-08 18:40:00,
2013-07-08 11:45:00,80.0,0.0,29.94,South,180,6.0,11.0,0,0.00,,,0.00,Weather View 32 v70,2013-07-08 18:45:00,
2013-07-08 11:50:00,80.5,0.0,29.94,WSW,242,3.0,12.0,0,0.00,,,0.00,Weather View 32 v70,2013-07-08 18:50:00,
2013-07-08 11:55:00,80.9,0.0,29.94,South,181,7.0,12.0,0,0.00,,,0.00,Weather View 32 v70,2013-07-08 18:55:00,
2013-07-08 12:01:00,81.4,0.0,29.94,SW,218,7.0,12.0,0,0.00,,,0.00,Weather View 32 v70,2013-07-08 19:01:00,
2013-07-08 12:07:00,81.8,0.0,29.94,SSW,200,4.0,12.0,0,0.00,,,0.00,Weather View 32 v70,2013-07-08 19:07:00,
2013-07-08 12:12:00,82.1,0.0,29.94,South,186,7.0,12.0,0,0.00,,,0.00,Weather View 32 v70,2013-07-08 19:12:00,
2013-07-08 12:19:00,83.1,0.0,29.94,WSW,246,6.0,12.0,0,0.00,,,0.00,Weather View 32 v70,2013-07-08 19:19:00,
2013-07-08 12:24:00,83.7,0.0,29.94,SW,231,8.0,12.0,0,0.00,,,0.00,Weather View 32 v70,2013-07-08 19:24:00,
2013-07-08 12:29:00,83.8,0.0,29.94,West,263,3.0,12.0,0,0.00,,,0.00,Weather View 32 v70,2013-07-08 19:29:00,
2013-07-08 12:34:00,85.4,0.0,29.94,WSW,256,7.0,12.0,0,0.00,,,0.00,Weather View 32 v70,2013-07-08 19:34:00,
2013-07-08 12:39:00,85.0,0.0,29.94,SSE,156,3.0,12.0,0,0.00,,,0.00,Weather View 32 v70,2013-07-08 19:39:00,
2013-07-08 12:45:00,85.5,0.0,29.94,SE,146,1.0,12.0,0,0.00,,,0.00,Weather View 32 v70,2013-07-08 19:45:00,
2013-07-08 12:50:00,85.5,0.0,29.94,SSW,198,3.0,11.0,0,0.00,,,0.00,Weather View 32 v70,2013-07-08 19:50:00,
2013-07-08 12:55:00,85.8,0.0,29.94,SW,222,4.0,11.0,0,0.00,,,0.00,Weather View 32 v70,2013-07-08 19:55:00,
2013-07-08 13:00:00,87.4,0.0,29.93,SW,226,7.0,11.0,0,0.00,,,0.00,Weather View 32 v70,2013-07-08 20:00:00,
2013-07-08 13:06:00,87.5,0.0,29.93,SW,229,2.0,11.0,0,0.00,,,0.00,Weather View 32 v70,2013-07-08 20:06:00,
2013-07-08 13:11:00,88.8,0.0,29.93,SSE,148,4.0,11.0,0,0.00,,,0.00,Weather View 32 v70,2013-07-08 20:11:00,
2013-07-08 13:17:00,88.9,0.0,29.93,SSE,160,3.0,11.0,0,0.00,,,0.00,Weather View 32 v70,2013-07-08 20:17:00,
2013-07-08 13:22:00,89.3,0.0,29.93,SW,217,3.0,11.0,0,0.00,,,0.00,Weather View 32 v70,2013-07-08 20:22:00,
2013-07-08 13:29:00,90.4,0.0,29.93,South,188,6.0,11.0,0,0.00,,,0.00,Weather View 32 v70,2013-07-08 20:29:00,
2013-07-08 13:34:00,88.5,0.0,29.93,SW,215,4.0,11.0,0,0.00,,,0.00,Weather View 32 v70,2013-07-08 20:34:00,
2013-07-08 13:39:00,89.3,0.0,29.93,SSE,160,3.0,11.0,0,0.00,,,0.00,Weather View 32 v70,2013-07-08 20:39:00,
2013-07-08 13:45:00,89.9,0.0,29.93,South,186,2.0,11.0,0,0.00,,,0.00,Weather View 32 v70,2013-07-08 20:45:00,
2013-07-08 13:50:00,90.1,0.0,29.93,SW,217,4.0,11.0,0,0.00,,,0.00,Weather View 32 v70,2013-07-08 20:50:00,
2013-07-08 13:55:00,91.0,0.0,29.93,WSW,240,9.0,12.0,0,0.00,,,0.00,Weather View 32 v70,2013-07-08 20:55:00,
2013-07-08 14:00:00,90.2,0.0,29.93,SSW,211,7.0,15.0,0,0.00,,,0.00,Weather View 32 v70,2013-07-08 21:00:00,
2013-07-08 14:06:00,89.7,0.0,29.93,South,174,5.0,15.0,0,0.00,,,0.00,Weather View 32 v70,2013-07-08 21:06:00,
2013-07-08 14:11:00,90.7,0.0,29.93,SW,231,4.0,17.0,0,0.00,,,0.00,Weather View 32 v70,2013-07-08 21:11:00,
2013-07-08 14:16:00,89.4,0.0,29.93,South,186,8.0,17.0,0,0.00,,,0.00,Weather View 32 v70,2013-07-08 21:16:00,
2013-07-08 14:21:00,89.8,0.0,29.93,WSW,239,5.0,17.0,0,0.00,,,0.00,Weather View 32 v70,2013-07-08 21:21:00,
2013-07-08 14:26:00,90.9,0.0,29.92,SW,231,7.0,17.0,0,0.00,,,0.00,Weather View 32 v70,2013-07-08 21:26:00,
2013-07-08 14:32:00,90.4,0.0,29.92,WSW,257,8.0,17.0,0,0.00,,,0.00,Weather View 32 v70,2013-07-08 21:32:00,
2013-07-08 14:37:00,91.3,0.0,29.92,South,191,8.0,17.0,0,0.00,,,0.00,Weather View 32 v70,2013-07-08 21:37:00,
2013-07-08 14:42:00,91.4,0.0,29.92,WSW,253,6.0,17.0,0,0.00,,,0.00,Weather View 32 v70,2013-07-08 21:42:00,
2013-07-08 14:48:00,92.0,0.0,29.92,WSW,245,9.0,17.0,0,0.00,,,0.00,Weather View 32 v70,2013-07-08 21:48:00,
2013-07-08 14:53:00,91.0,0.0,29.92,SSW,212,3.0,17.0,0,0.00,,,0.00,Weather View 32 v70,2013-07-08 21:53:00,
2013-07-08 14:59:00,92.3,0.0,29.92,West,273,8.0,17.0,0,0.00,,,0.00,Weather View 32 v70,2013-07-08 21:59:00,
2013-07-08 15:05:00,92.9,0.0,29.92,WSW,248,7.0,17.0,0,0.00,,,0.00,Weather View 32 v70,2013-07-08 22:05:00,
2013-07-08 15:10:00,93.4,0.0,29.91,WSW,245,6.0,15.0,0,0.00,,,0.00,Weather View 32 v70,2013-07-08 22:10:00,
2013-07-08 15:16:00,92.7,0.0,29.91,SSW,203,6.0,15.0,0,0.00,,,0.00,Weather View 32 v70,2013-07-08 22:16:00,
2013-07-08 15:22:00,93.1,0.0,29.91,SW,225,5.0,15.0,0,0.00,,,0.00,Weather View 32 v70,2013-07-08 22:22:00,
2013-07-08 15:28:00,92.8,0.0,29.91,South,191,9.0,15.0,0,0.00,,,0.00,Weather View 32 v70,2013-07-08 22:28:00,
2013-07-08 15:32:00,92.0,0.0,29.91,South,183,4.0,15.0,0,0.00,,,0.00,Weather View 32 v70,2013-07-08 22:32:00,
2013-07-08 15:37:00,92.4,0.0,29.91,SW,221,6.0,15.0,0,0.00,,,0.00,Weather View 32 v70,2013-07-08 22:37:00,
2013-07-08 15:43:00,92.7,0.0,29.91,SW,215,12.0,15.0,0,0.00,,,0.00,Weather View 32 v70,2013-07-08 22:43:00,
2013-07-08 15:48:00,93.2,0.0,29.91,SW,235,7.0,15.0,0,0.00,,,0.00,Weather View 32 v70,2013-07-08 22:48:00,
2013-07-08 15:54:00,93.7,0.0,29.91,SW,236,3.0,15.0,0,0.00,,,0.00,Weather View 32 v70,2013-07-08 22:54:00,
2013-07-08 15:59:00,93.8,0.0,29.91,WSW,256,5.0,14.0,0,0.00,,,0.00,Weather View 32 v70,2013-07-08 22:59:00,
2013-07-08 16:04:00,93.7,0.0,29.91,West,269,6.0,14.0,0,0.00,,,0.00,Weather View 32 v70,2013-07-08 23:04:00,
2013-07-08 16:09:00,93.0,0.0,29.90,WSW,249,3.0,14.0,0,0.00,,,0.00,Weather View 32 v70,2013-07-08 23:09:00,
2013-07-08 16:14:00,92.8,0.0,29.90,SSW,207,10.0,14.0,0,0.00,,,0.00,Weather View 32 v70,2013-07-08 23:14:00,
2013-07-08 16:19:00,92.8,0.0,29.90,West,273,8.0,14.0,0,0.00,,,0.00,Weather View 32 v70,2013-07-08 23:19:00,
2013-07-08 16:25:00,92.5,0.0,29.90,West,281,8.0,14.0,0,0.00,,,0.00,Weather View 32 v70,2013-07-08 23:25:00,
2013-07-08 16:30:00,92.3,0.0,29.90,WSW,250,5.0,14.0,0,0.00,,,0.00,Weather View 32 v70,2013-07-08 23:30:00,
2013-07-08 16:35:00,91.8,0.0,29.90,SW,225,4.0,14.0,0,0.00,,,0.00,Weather View 32 v70,2013-07-08 23:35:00,
2013-07-08 16:40:00,93.0,0.0,29.90,WNW,287,2.0,14.0,0,0.00,,,0.00,Weather View 32 v70,2013-07-08 23:40:00,
2013-07-08 16:46:00,93.1,0.0,29.90,SW,232,4.0,14.0,0,0.00,,,0.00,Weather View 32 v70,2013-07-08 23:46:00,
2013-07-08 16:51:00,92.8,0.0,29.90,SW,221,5.0,14.0,0,0.00,,,0.00,Weather View 32 v70,2013-07-08 23:51:00,
2013-07-08 16:56:00,92.0,0.0,29.90,SW,221,9.0,14.0,0,0.00,,,0.00,Weather View 32 v70,2013-07-08 23:56:00,
2013-07-08 17:01:00,92.4,0.0,29.90,WSW,239,4.0,14.0,0,0.00,,,0.00,Weather View 32 v70,2013-07-09 00:01:00,
2013-07-08 17:06:00,92.9,0.0,29.90,SSW,193,2.0,14.0,0,0.00,,,0.00,Weather View 32 v70,2013-07-09 00:06:00,
2013-07-08 17:11:00,92.8,0.0,29.90,West,269,5.0,14.0,0,0.00,,,0.00,Weather View 32 v70,2013-07-09 00:11:00,
2013-07-08 17:16:00,92.8,0.0,29.89,SW,221,5.0,14.0,0,0.00,,,0.00,Weather View 32 v70,2013-07-09 00:16:00,
2013-07-08 17:21:00,92.0,0.0,29.89,South,183,5.0,13.0,0,0.00,,,0.00,Weather View 32 v70,2013-07-09 00:21:00,
2013-07-08 17:27:00,90.8,0.0,29.89,South,186,4.0,13.0,0,0.00,,,0.00,Weather View 32 v70,2013-07-09 00:27:00,
2013-07-08 17:32:00,91.1,0.0,29.89,WSW,245,8.0,13.0,0,0.00,,,0.00,Weather View 32 v70,2013-07-09 00:32:00,
2013-07-08 17:37:00,91.1,0.0,29.89,SW,219,8.0,13.0,0,0.00,,,0.00,Weather View 32 v70,2013-07-09 00:37:00,
2013-07-08 17:43:00,90.9,0.0,29.89,SW,219,3.0,13.0,0,0.00,,,0.00,Weather View 32 v70,2013-07-09 00:43:00,
2013-07-08 17:48:00,90.0,0.0,29.89,SSW,211,9.0,13.0,0,0.00,,,0.00,Weather View 32 v70,2013-07-09 00:48:00,
2013-07-08 17:53:00,90.2,0.0,29.88,WSW,245,1.0,13.0,0,0.00,,,0.00,Weather View 32 v70,2013-07-09 00:53:00,
2013-07-08 17:58:00,89.9,0.0,29.88,WSW,250,8.0,12.0,0,0.00,,,0.00,Weather View 32 v70,2013-07-09 00:58:00,
2013-07-08 18:03:00,89.7,0.0,29.88,South,186,2.0,12.0,0,0.00,,,0.00,Weather View 32 v70,2013-07-09 01:03:00,
2013-07-08 18:10:00,88.5,0.0,29.88,NW,307,4.0,12.0,0,0.00,,,0.00,Weather View 32 v70,2013-07-09 01:10:00,
2013-07-08 18:15:00,87.1,0.0,29.88,SW,222,4.0,12.0,0,0.00,,,0.00,Weather View 32 v70,2013-07-09 01:15:00,
2013-07-08 18:22:00,86.3,0.0,29.88,SW,235,6.0,11.0,0,0.00,,,0.00,Weather View 32 v70,2013-07-09 01:22:00,
2013-07-08 18:27:00,86.4,0.0,29.89,WSW,253,2.0,11.0,0,0.00,,,0.00,Weather View 32 v70,2013-07-09 01:27:00,
2013-07-08 18:32:00,85.9,0.0,29.88,SW,233,4.0,11.0,0,0.00,,,0.00,Weather View 32 v70,2013-07-09 01:32:00,
2013-07-08 18:38:00,86.4,0.0,29.89,SSW,200,4.0,11.0,0,0.00,,,0.00,Weather View 32 v70,2013-07-09 01:38:00,
2013-07-08 18:43:00,85.7,0.0,29.89,South,184,0.0,11.0,0,0.00,,,0.00,Weather View 32 v70,2013-07-09 01:43:00,
2013-07-08 18:49:00,85.4,0.0,29.88,SSW,193,1.0,11.0,0,0.00,,,0.00,Weather View 32 v70,2013-07-09 01:49:00,
2013-07-08 18:54:00,84.5,0.0,29.89,SSW,195,7.0,11.0,0,0.00,,,0.00,Weather View 32 v70,2013-07-09 01:54:00,
2013-07-08 19:00:00,84.0,0.0,29.89,South,172,4.0,11.0,0,0.00,,,0.00,Weather View 32 v70,2013-07-09 02:00:00,
2013-07-08 19:05:00,84.4,0.0,29.89,SW,236,5.0,11.0,0,0.00,,,0.00,Weather View 32 v70,2013-07-09 02:05:00,
2013-07-08 19:11:00,83.0,0.0,29.89,WSW,243,6.0,11.0,0,0.00,,,0.00,Weather View 32 v70,2013-07-09 02:11:00,
2013-07-08 19:17:00,82.3,0.0,29.89,WSW,253,5.0,11.0,0,0.00,,,0.00,Weather View 32 v70,2013-07-09 02:17:00,
2013-07-08 19:22:00,82.4,0.0,29.89,SW,215,7.0,10.0,0,0.00,,,0.00,Weather View 32 v70,2013-07-09 02:22:00,
2013-07-08 19:27:00,82.2,0.0,29.89,South,184,6.0,10.0,0,0.00,,,0.00,Weather View 32 v70,2013-07-09 02:27:00,
2013-07-08 19:34:00,81.3,0.0,29.89,SE,139,1.0,10.0,0,0.00,,,0.00,Weather View 32 v70,2013-07-09 02:34:00,
2013-07-08 19:39:00,80.9,0.0,29.89,West,278,2.0,10.0,0,0.00,,,0.00,Weather View 32 v70,2013-07-09 02:39:00,
2013-07-08 19:44:00,80.7,0.0,29.89,SSW,197,2.0,10.0,0,0.00,,,0.00,Weather View 32 v70,2013-07-09 02:44:00,
2013-07-08 19:50:00,80.5,0.0,29.89,SSW,208,9.0,9.0,0,0.00,,,0.00,Weather View 32 v70,2013-07-09 02:50:00,
2013-07-08 19:55:00,80.4,0.0,29.89,SSW,210,2.0,9.0,0,0.00,,,0.00,Weather View 32 v70,2013-07-09 02:55:00,
2013-07-08 20:00:00,80.5,0.0,29.89,South,191,0.0,9.0,0,0.00,,,0.00,Weather View 32 v70,2013-07-09 03:00:00,
2013-07-08 20:05:00,80.2,0.0,29.89,SSW,211,1.0,9.0,0,0.00,,,0.00,Weather View 32 v70,2013-07-09 03:05:00,
2013-07-08 20:11:00,79.7,0.0,29.89,West,266,5.0,9.0,0,0.00,,,0.00,Weather View 32 v70,2013-07-09 03:11:00,
2013-07-08 20:17:00,79.4,0.0,29.89,West,280,2.0,9.0,0,0.00,,,0.00,Weather View 32 v70,2013-07-09 03:17:00,
2013-07-08 20:22:00,79.1,0.0,29.90,West,266,1.0,9.0,0,0.00,,,0.00,Weather View 32 v70,2013-07-09 03:22:00,
2013-07-08 20:28:00,78.7,0.0,29.89,WSW,238,2.0,9.0,0,0.00,,,0.00,Weather View 32 v70,2013-07-09 03:28:00,
2013-07-08 20:34:00,78.2,0.0,29.89,WSW,242,0.0,9.0,0,0.00,,,0.00,Weather View 32 v70,2013-07-09 03:34:00,
2013-07-08 20:39:00,77.8,0.0,29.90,WSW,243,3.0,9.0,0,0.00,,,0.00,Weather View 32 v70,2013-07-09 03:39:00,
2013-07-08 20:44:00,77.4,0.0,29.90,SW,225,0.0,9.0,0,0.00,,,0.00,Weather View 32 v70,2013-07-09 03:44:00,
2013-07-08 20:49:00,77.8,0.0,29.90,SW,228,2.0,9.0,0,0.00,,,0.00,Weather View 32 v70,2013-07-09 03:49:00,
2013-07-08 20:55:00,77.2,0.0,29.90,WSW,255,0.0,8.0,0,0.00,,,0.00,Weather View 32 v70,2013-07-09 03:55:00,
2013-07-08 21:01:00,76.3,0.0,29.90,SSW,204,0.0,8.0,0,0.00,,,0.00,Weather View 32 v70,2013-07-09 04:01:00,
2013-07-08 21:02:00,76.4,0.0,29.90,SSW,204,0.0,8.0,0,0.00,,,0.00,Weather View 32 v70,2013-07-09 04:02:00,
2013-07-08 21:07:00,76.3,0.0,29.90,SSW,204,0.0,8.0,0,0.00,,,0.00,Weather View 32 v70,2013-07-09 04:07:00,
2013-07-08 21:12:00,75.8,0.0,29.91,SE,145,2.0,8.0,0,0.00,,,0.00,Weather View 32 v70,2013-07-09 04:12:00,
2013-07-08 21:17:00,75.8,0.0,29.91,WSW,245,0.0,6.0,0,0.00,,,0.00,Weather View 32 v70,2013-07-09 04:17:00,
2013-07-08 21:22:00,75.5,0.0,29.91,SW,221,2.0,6.0,0,0.00,,,0.00,Weather View 32 v70,2013-07-09 04:22:00,
2013-07-08 21:27:00,74.9,0.0,29.91,SSW,208,0.0,6.0,0,0.00,,,0.00,Weather View 32 v70,2013-07-09 04:27:00,
2013-07-08 21:32:00,74.1,0.0,29.92,WSW,246,3.0,6.0,0,0.00,,,0.00,Weather View 32 v70,2013-07-09 04:32:00,
2013-07-08 21:37:00,74.2,0.0,29.92,WSW,252,1.0,6.0,0,0.00,,,0.00,Weather View 32 v70,2013-07-09 04:37:00,
2013-07-08 21:42:00,73.9,0.0,29.92,WSW,250,5.0,6.0,0,0.00,,,0.00,Weather View 32 v70,2013-07-09 04:42:00,
2013-07-08 21:47:00,73.5,0.0,29.93,West,274,1.0,6.0,0,0.00,,,0.00,Weather View 32 v70,2013-07-09 04:47:00,
2013-07-08 21:52:00,73.3,0.0,29.93,WNW,288,1.0,6.0,0,0.00,,,0.00,Weather View 32 v70,2013-07-09 04:52:00,
2013-07-08 21:57:00,73.3,0.0,29.93,West,269,3.0,7.0,0,0.00,,,0.00,Weather View 32 v70,2013-07-09 04:57:00,
2013-07-08 22:02:00,72.7,0.0,29.93,NW,322,0.0,7.0,0,0.00,,,0.00,Weather View 32 v70,2013-07-09 05:02:00,
2013-07-08 22:07:00,71.6,0.0,29.93,SSE,166,0.0,7.0,0,0.00,,,0.00,Weather View 32 v70,2013-07-09 05:07:00,
2013-07-08 22:12:00,71.9,0.0,29.93,South,172,0.0,7.0,0,0.00,,,0.00,Weather View 32 v70,2013-07-09 05:12:00,
2013-07-08 22:17:00,71.4,0.0,29.93,SW,218,5.0,7.0,0,0.00,,,0.00,Weather View 32 v70,2013-07-09 05:17:00,
2013-07-08 22:22:00,71.2,0.0,29.94,SSE,163,0.0,7.0,0,0.00,,,0.00,Weather View 32 v70,2013-07-09 05:22:00,
2013-07-08 22:27:00,69.6,0.0,29.94,SSW,208,2.0,7.0,0,0.00,,,0.00,Weather View 32 v70,2013-07-09 05:27:00,
2013-07-08 22:32:00,69.1,0.0,29.94,SSW,207,0.0,7.0,0,0.00,,,0.00,Weather View 32 v70,2013-07-09 05:32:00,
2013-07-08 22:37:00,69.4,0.0,29.94,SSW,201,0.0,7.0,0,0.00,,,0.00,Weather View 32 v70,2013-07-09 05:37:00,
2013-07-08 22:42:00,69.5,0.0,29.94,SSW,201,2.0,7.0,0,0.00,,,0.00,Weather View 32 v70,2013-07-09 05:42:00,
2013-07-08 22:47:00,69.1,0.0,29.94,SSE,166,0.0,7.0,0,0.00,,,0.00,Weather View 32 v70,2013-07-09 05:47:00,
2013-07-08 22:52:00,69.1,0.0,29.94,SSW,193,0.0,7.0,0,0.00,,,0.00,Weather View 32 v70,2013-07-09 05:52:00,
2013-07-08 22:57:00,68.8,0.0,29.94,SW,233,1.0,6.0,0,0.00,,,0.00,Weather View 32 v70,2013-07-09 05:57:00,
2013-07-08 23:02:00,68.2,0.0,29.94,WSW,249,0.0,6.0,0,0.00,,,0.00,Weather View 32 v70,2013-07-09 06:02:00,
2013-07-08 23:07:00,68.4,0.0,29.94,WSW,243,3.0,6.0,0,0.00,,,0.00,Weather View 32 v70,2013-07-09 06:07:00,
2013-07-08 23:12:00,68.2,0.0,29.94,SW,232,0.0,6.0,0,0.00,,,0.00,Weather View 32 v70,2013-07-09 06:12:00,
2013-07-08 23:17:00,68.2,0.0,29.94,WSW,240,5.0,6.0,0,0.00,,,0.00,Weather View 32 v70,2013-07-09 06:17:00,
2013-07-08 23:22:00,68.3,0.0,29.95,SW,214,0.0,6.0,0,0.00,,,0.00,Weather View 32 v70,2013-07-09 06:22:00,
2013-07-08 23:27:00,67.9,0.0,29.95,West,274,1.0,6.0,0,0.00,,,0.00,Weather View 32 v70,2013-07-09 06:27:00,
2013-07-08 23:32:00,67.7,0.0,29.95,WNW,285,3.0,6.0,0,0.00,,,0.00,Weather View 32 v70,2013-07-09 06:32:00,
2013-07-08 23:37:00,67.3,0.0,29.95,West,270,4.0,6.0,0,0.00,,,0.00,Weather View 32 v70,2013-07-09 06:37:00,
2013-07-08 23:42:00,67.0,0.0,29.95,WNW,285,3.0,6.0,0,0.00,,,0.00,Weather View 32 v70,2013-07-09 06:42:00,
2013-07-08 23:47:00,66.9,0.0,29.95,SW,215,2.0,8.0,0,0.00,,,0.00,Weather View 32 v70,2013-07-09 06:47:00,
2013-07-08 23:52:00,67.2,0.0,29.95,WSW,250,0.0,8.0,0,0.00,,,0.00,Weather View 32 v70,2013-07-09 06:52:00,
2013-07-08 23:57:00,66.7,0.0,29.95,West,269,1.0,8.0,0,0.00,,,0.00,Weather View 32 v70,2013-07-09 06:57:00,